Location: Newark
(49.5647°N, 8.2922°E)
Time: 10:13:20
(UTC+00:00)

Transit 2A - Pass Details

Date: 19 February 2020
Orbit: 597 x 961 km, 66.7° (Epoch: 28 March)

Event Time Altitude Azimuth Distance (km) Brightness Sun altitude
Rises 22:36:52 0° 317° (NW) 3,082 9.7 -49.4°
Enters shadow 22:37:06 - 316° (NW) 2,993 9.7 -49.4°
Reaches altitude 10° 22:39:17 10° 308° (NW) 2,215 - -49.6°
Maximum altitude 22:43:47 33° 245° (WSW) 1,278 - -49.9°
Drops below altitude 10° 22:48:41 10° 183° (S) 2,421 - -50.2°
Sets 22:51:27 0° 174° (S) 3,411 - -50.3°
